[[{"header":{"parameterUnit":"m.s-1","parameterCategory":1,"la1":30.2991,"la2":30.254,"lo1":-89.0895,"lo2":-89.0444,"dy":0.0017,"dx":0.0017,"nx":28,"ny":28,"refTime":"2023-10-13T21:00:00:Z","depth":0,"parameterNumber":2,"parameterNumberName":"U-component_of_WINDS"},"data":[0,0,0,0,0,0,0,0,0,0,0,0,0,0,0,0,0,0,0,0,0,0,0,0,0,0,0,0,0,0,0,0,0,0,0,0,0,0,0,0,0,0,0,0,0,0,0,0,0,0,0,0,0,0,0,0,0,0,0.8696,0.8695,0,0.8656,0.8655,0.8655,0.8627,0.8627,0.8626,0.8626,0.8585,0.8584,0.8583,0,0,0,0,0,0,0,0,0,0,0,0,0,0.8748,0.8747,0.8696,0.8695,0.8695,0.8656,0.8655,0.8654,0.8627,0.8627,0.8626,0.8626,0.8585,0.8584,0.8583,0,0,0,0,0,0,0,0,0,0,0,0,0,0.8718,0.8747,0.8696,0.8676,0.8674,0.8656,0.8655,0.8654,0.8627,0.8627,0.8626,0.8626,0.8586,0.8584,0.8583,0.8581,0,0,0.8579,0.8578,0,0,0,0,0,0,0,0,0.872,0.8716,0.868,0.8678,0.8675,0.8646,0.8658,0.863,0.8627,0.8645,0.8626,0.8626,0.8605,0.8602,0.8596,0.8579,0.8577,0.8579,0.8578,0.8577,0.8577,0,0,0,0,0,0,0,0.8722,0.8718,0.868,0.8679,0.8676,0.8669,0.8665,0.8653,0.8627,0.8643,0.8641,0.8637,0.8604,0.8597,0.8594,0.8576,0.8579,0.8577,0.8577,0.8576,0.8556,0.8556,0,0,0,0,0,0,0.8727,0.872,0.8681,0.8679,0.8697,0.8669,0.8663,0.8656,0.8627,0.8623,0.8637,0.8636,0.8599,0.8596,0.8593,0.8588,0.8577,0.8576,0.8575,0.8555,0.8556,0.8556,0,0,0,0,0,0,0.8728,0.8724,0.8683,0.8699,0.8693,0.8668,0.8659,0.8655,0.8648,0.8623,0.8618,0.8634,0.8599,0.8595,0.8584,0.8587,0.8575,0.8574,0.8555,0.8555,0.8556,0.858,0,0,0,0,0,0,0.873,0.8725,0.8724,0.8699,0.8692,0.8675,0.866,0.8654,0.8646,0.8643,0.8619,0.8615,0.8598,0.8586,0.8583,0.8584,0.8573,0.8555,0.8555,0.8556,0.8579,0.8581,0.8583,0,0,0,0,0,0.8732,0.8732,0.8724,0.8719,0.869,0.8675,0.8671,0.8652,0.8646,0.8645,0.8629,0.8616,0.8587,0.8585,0.8581,0.8583,0.8554,0.8555,0.8556,0.8578,0.858,0.8583,0,0,0,0,0,0,0.8758,0.8728,0.8719,0.8711,0.8696,0.867,0.8668,0.8656,0.8642,0.8641,0.8618,0.8613,0.8604,0.8592,0.8591,0.8579,0.8569,0.8569,0.8587,0.859,0.8592,0.8595,0.8572,0,0,0,0,0,0.8763,0.8753,0.8727,0.8723,0.8715,0.8693,0.8686,0.8673,0.8656,0.8649,0.8632,0.8616,0.8604,0.8596,0.8583,0.8577,0.8571,0.8575,0.8578,0.858,0.858,0.8575,0.8577,0.8558,0.8558,0.8558,0,0,0.8772,0.8755,0.875,0.8727,0.8714,0.8704,0.8688,0.8678,0.867,0.8648,0.8637,0.8624,0.8604,0.8596,0.8591,0.8585,0.8584,0.858,0.8582,0.8581,0.8576,0.8578,0.858,0.8558,0.8558,0.8558,0,0,0.8785,0.8771,0.8766,0.8752,0.8732,0.8717,0.8716,0.8693,0.8683,0.8671,0.8654,0.8645,0.8623,0.861,0.8601,0.8608,0.8596,0.8605,0.8616,0.8612,0.8614,0.8615,0.8618,0.8619,0.8605,0.8605,0.8605,0,0.88,0.8784,0.8764,0.8755,0.8746,0.8725,0.8719,0.8707,0.8684,0.8678,0.8672,0.8645,0.863,0.8618,0.862,0.8613,0.8611,0.8608,0.8615,0.8616,0.8617,0.8619,0.8621,0.8606,0.8606,0.8606,0.8606,0,0.8803,0.8793,0.8791,0.8769,0.8759,0.8752,0.8731,0.8723,0.8711,0.8696,0.8685,0.8667,0.865,0.8646,0.8633,0.8632,0.8629,0.8619,0.8609,0.862,0.8622,0.8623,0.8608,0.8608,0.8607,0.8607,0,0,0.8832,0.8799,0.8798,0.8788,0.8764,0.8755,0.8747,0.873,0.8724,0.8709,0.8701,0.8684,0.8675,0.8664,0.865,0.8647,0.8654,0.8637,0.8636,0.8641,0.8651,0.8659,0.866,0.8645,0.8645,0.8645,0.8653,0,0.8841,0.8825,0.8807,0.8797,0.8787,0.8767,0.8759,0.8744,0.873,0.872,0.8704,0.8692,0.8681,0.8674,0.867,0.8654,0.8656,0.8653,0.8638,0.8638,0.8644,0.8661,0.8669,0.8677,0.8653,0.8653,0.8654,0,0.885,0.8835,0.8825,0.8802,0.8797,0.8791,0.8774,0.8764,0.8746,0.8736,0.8724,0.8709,0.8699,0.869,0.8676,0.8675,0.8667,0.8658,0.8658,0.8656,0.8647,0.866,0.8679,0.868,0.8654,0.8654,0.8654,0,0.8872,0.885,0.884,0.8832,0.8805,0.8801,0.879,0.8771,0.8762,0.8747,0.8741,0.8726,0.8717,0.8705,0.8687,0.8681,0.8675,0.8664,0.8666,0.8667,0.8666,0.8666,0.8684,0.8661,0.8661,0.8661,0.8661,0,0.8884,0.8879,0.885,0.8844,0.8837,0.8816,0.881,0.8796,0.878,0.8771,0.8753,0.8745,0.872,0.871,0.8695,0.8686,0.8682,0.8674,0.867,0.8676,0.8677,0.8671,0.867,0.8661,0.8661,0.8661,0.8661,0,0.8908,0.8888,0.8877,0.8852,0.8846,0.8842,0.882,0.8814,0.8799,0.8788,0.8784,0.8761,0.8748,0.8728,0.8708,0.8698,0.8691,0.8685,0.8697,0.8695,0.8699,0.8699,0.8714,0.8715,0.8691,0.8691,0.8691,0,0.8917,0.8912,0.8887,0.888,0.8869,0.8858,0.8848,0.8827,0.8818,0.8797,0.8793,0.8778,0.8765,0.8745,0.8726,0.8711,0.8704,0.871,0.8702,0.8707,0.8704,0.8705,0.8704,0.8713,0.8713,0.8713,0.8713,0,0.8936,0.8926,0.8914,0.8898,0.8888,0.8874,0.886,0.8855,0.883,0.8821,0.8807,0.8797,0.8777,0.8762,0.8745,0.8733,0.8719,0.8716,0.8716,0.8722,0.873,0.8726,0.8703,0.8716,0.8716,0.8716,0.8715,0.8715,0.8953,0.8947,0.8929,0.8915,0.8902,0.8889,0.8882,0.8866,0.8854,0.8836,0.8824,0.8811,0.8792,0.8767,0.8756,0.8745,0.8739,0.8739,0.8739,0.8739,0.8741,0.8731,0.8742,0.8742,0.8742,0.8741,0.8741,0,0.8971,0.8957,0.8945,0.8926,0.8915,0.8903,0.8886,0.8878,0.8867,0.8851,0.8838,0.8822,0.8808,0.8788,0.8772,0.8767,0.8761,0.8764,0.8764,0.8762,0.8747,0.8749,0.877,0.877,0.877,0.877,0.877,0.877,0.8979,0.8969,0.8958,0.8941,0.8928,0.8915,0.8906,0.8894,0.8881,0.8864,0.8852,0.8839,0.8822,0.8804,0.8791,0.8785,0.878,0.8785,0.8778,0.8765,0.8763,0.876,0.8762,0.8784,0.8785,0.8793,0.8793,0.8793]},{"header":{"parameterUnit":"m.s-1","parameterCategory":1,"la1":30.2991,"la2":30.254,"lo1":-89.0895,"lo2":-89.0444,"dy":0.0017,"dx":0.0017,"nx":28,"ny":28,"refTime":"2023-10-13T21:00:00:Z","depth":0,"parameterNumber":3,"parameterNumberName":"V-component_of_WINDS"},"data":[0,0,0,0,0,0,0,0,0,0,0,0,0,0,0,0,0,0,0,0,0,0,0,0,0,0,0,0,0,0,0,0,0,0,0,0,0,0,0,0,0,0,0,0,0,0,0,0,0,0,0,0,0,0,0,0,0,0,-0.1196,-0.1198,0,-0.1329,-0.133,-0.1332,-0.1391,-0.1391,-0.1391,-0.1391,-0.1528,-0.1532,-0.1536,0,0,0,0,0,0,0,0,0,0,0,0,0,-0.0997,-0.1001,-0.1196,-0.1198,-0.12,-0.1328,-0.133,-0.1332,-0.1391,-0.1391,-0.1391,-0.139,-0.1527,-0.1531,-0.1536,0,0,0,0,0,0,0,0,0,0,0,0,0,-0.1102,-0.1002,-0.1196,-0.1244,-0.125,-0.1328,-0.133,-0.1333,-0.1391,-0.1391,-0.1391,-0.139,-0.1525,-0.1531,-0.1537,-0.1577,0,0,-0.1554,-0.1557,0,0,0,0,0,0,0,0,-0.1096,-0.1109,-0.1236,-0.1241,-0.1248,-0.1343,-0.1311,-0.1415,-0.1391,-0.1338,-0.1391,-0.139,-0.1467,-0.1477,-0.1503,-0.1583,-0.1589,-0.1555,-0.1558,-0.1561,-0.1562,0,0,0,0,0,0,0,-0.1089,-0.1104,-0.1249,-0.1237,-0.1245,-0.1261,-0.1275,-0.1331,-0.1402,-0.1342,-0.1347,-0.1362,-0.147,-0.1497,-0.1507,-0.1591,-0.1554,-0.156,-0.1563,-0.1565,-0.1713,-0.1714,0,0,0,0,0,0,-0.1073,-0.1098,-0.1245,-0.1253,-0.117,-0.1264,-0.1281,-0.1313,-0.1402,-0.1415,-0.1362,-0.1364,-0.1488,-0.15,-0.1512,-0.1566,-0.1561,-0.1566,-0.1569,-0.1713,-0.1713,-0.1714,0,0,0,0,0,0,-0.1069,-0.1086,-0.1239,-0.1176,-0.1197,-0.1268,-0.1304,-0.1315,-0.1343,-0.1416,-0.143,-0.1376,-0.1488,-0.1504,-0.156,-0.1571,-0.1568,-0.1574,-0.1712,-0.1713,-0.1714,-0.1673,0,0,0,0,0,0,-0.1063,-0.1084,-0.1099,-0.1176,-0.12,-0.1285,-0.1304,-0.1318,-0.1352,-0.1356,-0.1433,-0.1446,-0.1489,-0.1552,-0.1566,-0.1579,-0.1578,-0.1712,-0.1713,-0.1713,-0.1674,-0.1673,-0.1671,0,0,0,0,0,-0.1055,-0.1082,-0.1099,-0.1117,-0.1221,-0.1285,-0.1299,-0.1347,-0.1353,-0.1369,-0.1417,-0.1443,-0.1568,-0.1557,-0.1574,-0.1589,-0.1711,-0.1712,-0.1713,-0.1675,-0.1673,-0.1671,0,0,0,0,0,0,-0.1005,-0.1093,-0.1113,-0.1166,-0.1218,-0.1295,-0.1317,-0.1344,-0.1396,-0.1397,-0.1456,-0.1473,-0.1525,-0.1563,-0.1549,-0.1633,-0.1642,-0.1646,-0.1607,-0.1606,-0.1604,-0.1594,-0.1583,0,0,0,0,0,-0.1,-0.1044,-0.1119,-0.1159,-0.1184,-0.1246,-0.1276,-0.1309,-0.1365,-0.1387,-0.1439,-0.1493,-0.1544,-0.1577,-0.1628,-0.168,-0.1698,-0.1698,-0.1697,-0.1696,-0.1699,-0.173,-0.1732,-0.1718,-0.1718,-0.1718,0,0,-0.099,-0.1044,-0.1068,-0.115,-0.1194,-0.1239,-0.1264,-0.1311,-0.1345,-0.1394,-0.1451,-0.1491,-0.1556,-0.161,-0.1637,-0.1643,-0.1707,-0.1697,-0.1695,-0.17,-0.1732,-0.1733,-0.1734,-0.1718,-0.1718,-0.1718,0,0,-0.0996,-0.104,-0.1078,-0.1122,-0.1188,-0.1229,-0.1238,-0.1312,-0.1341,-0.1399,-0.1437,-0.1479,-0.1566,-0.1611,-0.1645,-0.1668,-0.1695,-0.1684,-0.1677,-0.1707,-0.1708,-0.1709,-0.1719,-0.1721,-0.1687,-0.1687,-0.1687,0,-0.0975,-0.1044,-0.1095,-0.114,-0.1175,-0.1221,-0.1261,-0.1301,-0.1381,-0.1405,-0.1411,-0.1522,-0.1568,-0.1634,-0.164,-0.1666,-0.1679,-0.1675,-0.1704,-0.1705,-0.1707,-0.1717,-0.172,-0.1685,-0.1685,-0.1685,-0.1685,0,-0.1017,-0.1064,-0.1088,-0.1163,-0.1201,-0.1243,-0.1301,-0.1333,-0.1363,-0.1404,-0.1464,-0.1521,-0.1585,-0.1603,-0.1633,-0.1675,-0.1677,-0.1692,-0.1702,-0.1706,-0.1716,-0.172,-0.1682,-0.1683,-0.1683,-0.1684,0,0,-0.0994,-0.1097,-0.1105,-0.114,-0.1217,-0.1255,-0.13,-0.1362,-0.139,-0.1443,-0.1483,-0.1556,-0.1572,-0.161,-0.1645,-0.1671,-0.1688,-0.1684,-0.1687,-0.1684,-0.1739,-0.1727,-0.173,-0.1706,-0.1707,-0.1708,-0.1734,0,-0.101,-0.1092,-0.1139,-0.1202,-0.1247,-0.1292,-0.1332,-0.1384,-0.1423,-0.1469,-0.1513,-0.1564,-0.158,-0.1604,-0.1631,-0.168,-0.17,-0.1679,-0.1745,-0.1747,-0.1728,-0.1735,-0.1723,-0.1745,-0.1738,-0.1738,-0.1739,0,-0.1041,-0.1093,-0.116,-0.1233,-0.1254,-0.1288,-0.135,-0.1392,-0.1452,-0.148,-0.1523,-0.1558,-0.1609,-0.1614,-0.1685,-0.167,-0.17,-0.1728,-0.173,-0.1739,-0.1743,-0.1745,-0.1753,-0.1756,-0.1746,-0.1745,-0.1745,0,-0.1018,-0.1106,-0.1158,-0.1186,-0.1272,-0.1295,-0.1332,-0.1392,-0.1427,-0.1482,-0.1505,-0.1565,-0.1597,-0.1643,-0.1694,-0.1693,-0.176,-0.177,-0.1786,-0.1784,-0.1798,-0.1797,-0.1811,-0.1816,-0.1816,-0.1816,-0.1816,0,-0.1032,-0.1072,-0.1149,-0.1181,-0.1227,-0.1281,-0.1326,-0.1366,-0.142,-0.1461,-0.1504,-0.1542,-0.1606,-0.1653,-0.1693,-0.1747,-0.1761,-0.1785,-0.1796,-0.1782,-0.1779,-0.1803,-0.1803,-0.1817,-0.1817,-0.1816,-0.1816,0,-0.1015,-0.1068,-0.1128,-0.1204,-0.1225,-0.1255,-0.1321,-0.1355,-0.1397,-0.1449,-0.1464,-0.1531,-0.1588,-0.1643,-0.172,-0.1747,-0.1801,-0.1814,-0.178,-0.1786,-0.1799,-0.1797,-0.183,-0.1838,-0.1836,-0.1836,-0.1836,0,-0.1021,-0.1052,-0.1132,-0.1163,-0.1199,-0.1247,-0.1284,-0.1339,-0.1375,-0.1446,-0.1471,-0.1532,-0.1583,-0.1672,-0.1728,-0.1787,-0.1803,-0.181,-0.1812,-0.1798,-0.1804,-0.1802,-0.1806,-0.1809,-0.1809,-0.1809,-0.1808,0,-0.1025,-0.105,-0.11,-0.116,-0.1201,-0.1251,-0.1302,-0.1325,-0.139,-0.1429,-0.1487,-0.1527,-0.1605,-0.1665,-0.1731,-0.177,-0.1801,-0.1807,-0.1814,-0.1801,-0.1781,-0.1793,-0.1777,-0.1806,-0.1807,-0.1807,-0.1807,-0.1807,-0.1021,-0.1051,-0.1113,-0.1167,-0.1212,-0.1259,-0.1294,-0.1341,-0.139,-0.1458,-0.1488,-0.1548,-0.1609,-0.17,-0.1739,-0.1788,-0.1795,-0.1805,-0.1807,-0.1809,-0.1807,-0.1772,-0.18,-0.18,-0.18,-0.18,-0.18,0,-0.1029,-0.107,-0.112,-0.119,-0.1234,-0.1258,-0.1316,-0.1351,-0.1402,-0.1457,-0.1506,-0.1574,-0.1633,-0.1693,-0.1756,-0.1783,-0.1798,-0.1797,-0.1796,-0.1805,-0.1796,-0.1784,-0.1784,-0.1784,-0.1784,-0.1784,-0.1784,-0.1784,-0.1038,-0.1091,-0.1124,-0.12,-0.1242,-0.13,-0.1332,-0.1376,-0.1419,-0.1494,-0.1542,-0.1581,-0.1639,-0.1705,-0.176,-0.1777,-0.1798,-0.1794,-0.1814,-0.1805,-0.1806,-0.1806,-0.1796,-0.1797,-0.1797,-0.1819,-0.1819,-0.182]}]]